TimeEST,TemperatureF,Dew PointF,Humidity,Sea Level PressureIn,VisibilityMPH,Wind Direction,Wind SpeedMPH,Gust SpeedMPH,PrecipitationIn,Events,Conditions,WindDirDegrees,DateUTC
12:14 AM,16.3,10.2,77,30.26,10.0,WSW,4.6,-,N/A,,Overcast,240,2014-02-04 05:14:00
12:34 AM,16.9,10.8,77,30.26,10.0,SW,3.5,-,N/A,,Overcast,220,2014-02-04 05:34:00
12:55 AM,16.7,10.8,77,30.26,10.0,Calm,Calm,-,N/A,,Overcast,0,2014-02-04 05:55:00
1:14 AM,16.9,10.9,77,30.26,10.0,Calm,Calm,-,N/A,,Overcast,0,2014-02-04 06:14:00
1:35 AM,17.1,11.7,79,30.27,10.0,WSW,5.8,-,N/A,,Overcast,240,2014-02-04 06:35:00
1:55 AM,17.1,11.8,80,30.27,10.0,WSW,3.5,-,N/A,,Overcast,240,2014-02-04 06:55:00
2:14 AM,16.5,11.5,81,30.27,10.0,SW,3.5,-,N/A,,Overcast,230,2014-02-04 07:14:00
2:35 AM,16.2,11.3,81,30.28,10.0,WNW,3.5,-,N/A,,Overcast,300,2014-02-04 07:35:00
2:55 AM,16.2,11.5,82,30.28,10.0,Calm,Calm,-,N/A,,Overcast,0,2014-02-04 07:55:00
3:14 AM,16.3,11.3,81,30.28,10.0,West,3.5,-,N/A,Snow,Light Snow,270,2014-02-04 08:14:00
3:35 AM,16.3,11.3,81,30.29,10.0,Calm,Calm,-,N/A,Snow,Light Snow,0,2014-02-04 08:35:00
3:54 AM,16.2,11.3,81,30.30,10.0,Calm,Calm,-,N/A,,Overcast,0,2014-02-04 08:54:00
4:14 AM,15.8,11.8,84,30.30,10.0,Calm,Calm,-,N/A,Snow,Light Snow,0,2014-02-04 09:14:00
4:35 AM,15.4,11.3,84,30.31,10.0,West,3.5,-,N/A,Snow,Light Snow,280,2014-02-04 09:35:00
4:54 AM,13.8,10.2,86,30.31,10.0,Calm,Calm,-,N/A,,Clear,0,2014-02-04 09:54:00
5:14 AM,9.1,5.9,87,30.32,10.0,Calm,Calm,-,N/A,,Clear,0,2014-02-04 10:14:00
5:35 AM,9.9,7.5,90,30.32,10.0,Calm,Calm,-,N/A,,Clear,0,2014-02-04 10:35:00
5:54 AM,8.4,5.9,89,30.32,10.0,Calm,Calm,-,N/A,,Clear,0,2014-02-04 10:54:00
6:14 AM,6.4,3.6,88,30.32,10.0,Calm,Calm,-,N/A,,Scattered Clouds,0,2014-02-04 11:14:00
6:35 AM,8.4,5.9,89,30.33,10.0,Calm,Calm,-,N/A,,Scattered Clouds,0,2014-02-04 11:35:00
6:54 AM,7.0,4.3,89,30.34,10.0,Calm,Calm,-,N/A,,Mostly Cloudy,0,2014-02-04 11:54:00
7:14 AM,6.4,3.4,87,30.34,10.0,Calm,Calm,-,N/A,,Overcast,0,2014-02-04 12:14:00
7:35 AM,8.4,5.9,89,30.34,10.0,WNW,3.5,-,N/A,,Overcast,290,2014-02-04 12:35:00
7:54 AM,9.9,7.0,88,30.34,10.0,West,3.5,-,N/A,,Overcast,280,2014-02-04 12:54:00
8:15 AM,10.9,8.2,89,30.35,10.0,West,3.5,-,N/A,Snow,Light Snow,280,2014-02-04 13:15:00
8:35 AM,11.5,9.0,90,30.37,4.0,Calm,Calm,-,N/A,Snow,Light Snow,0,2014-02-04 13:35:00
8:54 AM,10.2,7.5,89,30.37,3.0,Calm,Calm,-,N/A,Snow,Light Snow,0,2014-02-04 13:54:00
9:15 AM,8.6,5.9,89,30.38,2.5,Calm,Calm,-,N/A,Snow,Light Snow,0,2014-02-04 14:15:00
9:35 AM,9.5,6.8,89,30.37,7.0,Calm,Calm,-,N/A,,Clear,0,2014-02-04 14:35:00
9:54 AM,9.9,7.2,89,30.38,10.0,Calm,Calm,-,N/A,,Clear,0,2014-02-04 14:54:00
10:15 AM,13.5,10.9,90,30.38,10.0,Calm,Calm,-,N/A,,Clear,0,2014-02-04 15:15:00
10:34 AM,13.5,10.8,89,30.39,10.0,Calm,Calm,-,N/A,,Clear,0,2014-02-04 15:34:00
10:54 AM,14.9,11.3,86,30.39,10.0,Calm,Calm,-,N/A,,Clear,0,2014-02-04 15:54:00
11:15 AM,15.8,11.7,84,30.40,10.0,SW,3.5,-,N/A,,Clear,230,2014-02-04 16:15:00
11:34 AM,16.2,11.3,81,30.40,10.0,WSW,3.5,-,N/A,,Scattered Clouds,240,2014-02-04 16:34:00
11:54 AM,18.5,12.2,76,30.39,10.0,SW,3.5,-,N/A,,Mostly Cloudy,220,2014-02-04 16:54:00
12:15 PM,18.5,12.6,78,30.39,10.0,SSW,4.6,-,N/A,,Clear,210,2014-02-04 17:15:00
12:34 PM,18.7,12.2,76,30.38,10.0,WSW,3.5,-,N/A,,Clear,240,2014-02-04 17:34:00
12:54 PM,18.5,12.0,76,30.35,10.0,Calm,Calm,-,N/A,,Clear,0,2014-02-04 17:54:00
1:15 PM,18.9,11.8,74,30.34,10.0,SW,4.6,-,N/A,,Clear,230,2014-02-04 18:15:00
1:34 PM,18.5,12.4,77,30.35,10.0,SW,5.8,-,N/A,,Clear,220,2014-02-04 18:34:00
1:54 PM,17.2,11.8,79,30.35,10.0,SW,6.9,-,N/A,,Clear,230,2014-02-04 18:54:00
2:15 PM,16.7,11.7,81,30.35,10.0,SW,6.9,-,N/A,,Clear,230,2014-02-04 19:15:00
2:34 PM,16.2,11.3,81,30.35,10.0,SW,3.5,-,N/A,,Clear,230,2014-02-04 19:34:00
2:54 PM,15.8,11.3,82,30.35,10.0,WSW,4.6,-,N/A,,Clear,240,2014-02-04 19:54:00
3:15 PM,16.0,11.5,82,30.34,10.0,Calm,Calm,-,N/A,,Scattered Clouds,0,2014-02-04 20:15:00
3:34 PM,16.2,11.5,82,30.34,10.0,SW,3.5,-,N/A,,Scattered Clouds,230,2014-02-04 20:34:00
3:55 PM,15.8,11.8,84,30.34,10.0,SW,3.5,-,N/A,,Clear,220,2014-02-04 20:55:00
4:15 PM,15.8,12.2,86,30.33,10.0,Calm,Calm,-,N/A,,Clear,0,2014-02-04 21:15:00
4:34 PM,14.4,10.8,86,30.34,10.0,SSW,4.6,-,N/A,,Clear,210,2014-02-04 21:34:00
4:55 PM,14.5,11.3,87,30.34,10.0,SSW,3.5,-,N/A,,Mostly Cloudy,210,2014-02-04 21:55:00
5:14 PM,13.8,10.6,87,30.35,10.0,Calm,Calm,-,N/A,,Overcast,0,2014-02-04 22:14:00
5:34 PM,14.0,10.8,87,30.34,10.0,Calm,Calm,-,N/A,,Overcast,0,2014-02-04 22:34:00
5:55 PM,13.8,10.4,86,30.35,10.0,Calm,Calm,-,N/A,,Overcast,0,2014-02-04 22:55:00
6:14 PM,14.0,10.6,86,30.34,10.0,Calm,Calm,-,N/A,,Scattered Clouds,0,2014-02-04 23:14:00
6:34 PM,13.5,10.6,88,30.34,10.0,Calm,Calm,-,N/A,,Clear,0,2014-02-04 23:34:00
6:55 PM,13.5,10.8,89,30.34,10.0,Calm,Calm,-,N/A,,Clear,0,2014-02-04 23:55:00
7:14 PM,13.5,10.8,89,30.35,10.0,Calm,Calm,-,N/A,,Clear,0,2014-02-05 00:14:00
7:34 PM,13.5,10.9,90,30.35,10.0,Calm,Calm,-,N/A,,Clear,0,2014-02-05 00:34:00
7:55 PM,13.5,10.6,88,30.34,10.0,Calm,Calm,-,N/A,,Clear,0,2014-02-05 00:55:00
8:14 PM,13.5,10.2,87,30.33,10.0,ENE,4.6,-,N/A,,Clear,60,2014-02-05 01:14:00
8:34 PM,16.2,10.6,79,30.33,10.0,NNE,5.8,-,N/A,,Clear,30,2014-02-05 01:34:00
8:55 PM,17.6,9.9,72,30.32,10.0,NNE,6.9,-,N/A,,Clear,30,2014-02-05 01:55:00
9:14 PM,17.1,8.6,69,30.32,10.0,NNE,8.1,-,N/A,,Clear,30,2014-02-05 02:14:00
9:34 PM,17.1,7.7,67,30.31,10.0,NNE,6.9,-,N/A,,Clear,30,2014-02-05 02:34:00
9:55 PM,16.7,7.0,66,30.31,10.0,NE,6.9,-,N/A,,Clear,40,2014-02-05 02:55:00
10:14 PM,16.5,6.8,66,30.32,10.0,NNE,6.9,-,N/A,,Clear,30,2014-02-05 03:14:00
10:34 PM,16.2,6.8,67,30.31,10.0,NE,6.9,-,N/A,,Clear,50,2014-02-05 03:34:00
10:55 PM,15.8,6.8,68,30.31,10.0,NE,6.9,-,N/A,,Clear,40,2014-02-05 03:55:00
11:14 PM,15.8,6.4,67,30.29,10.0,NNE,8.1,-,N/A,,Clear,20,2014-02-05 04:14:00
11:35 PM,15.8,5.9,65,30.30,10.0,NNE,6.9,-,N/A,,Clear,30,2014-02-05 04:35:00
11:55 PM,15.8,5.9,65,30.29,10.0,NE,8.1,-,N/A,,Clear,40,2014-02-05 04:55:00